Pond Inlet Climate, Nunavut

9:18 PM EST on February 07, 2016 (GMT -0500)
Pond Inlet

Weather History for CYIO - October, 2013

Change the Weather History Date:

Tuesday, October 22, 2013

  Actual Average Record
Temperature  
Mean Temperature 12 °F -  
Max Temperature 18 °F 15 °F 39 °F (2003)
Min Temperature 7 °F 6 °F -2 °F (2011)
Degree Days  
Heating Degree Days 52    
Moisture  
Dew Point 12 °F    
Average Humidity 91    
Maximum Humidity 100    
Minimum Humidity 75    
Precipitation  
Precipitation 0.00 in - - ()
Sea Level Pressure  
Sea Level Pressure 30.20 in    
Wind  
Wind Speed 9 mph ()    
Max Wind Speed 14 mph    
Max Gust Speed -    
Visibility 6.6 miles    
Events Fog , Rain , Snow    
Averages and records for this station are not official NWS values.
T = Trace of Precipitation, MM = Missing Value Source: Averaged Metar Reports

Daily Weather History Graph

Daily Weather History Graph

Search for Another Location

Airport or City:

Trip Planner

Search our weather history database for the weather conditions in past years. The results will help you decide how hot, cold, wet, or windy it might be!

Date:

Astronomy

Oct. 22, 2013 Rise Set
Actual Time 9:19 AM EDT 4:31 PM EDT
Civil Twilight 8:00 AM EDT 5:50 PM EDT
Nautical Twilight 6:38 AM EDT 7:11 PM EDT
Astronomical Twilight 5:15 AM EDT 8:33 PM EDT
Moon No Moon Rise No Moon Set
Length of Visible Light 9h 49m
Length of Day
7h 11m
Waning Gibbous, 87% of the Moon is Illuminated
Oct 22
Waning Gibbous
Oct 26
Last Quarter
Nov 3
New
Nov 10
First Quarter
Nov 17
Full

Hourly Weather History & Observations

Time (EDT) Temp. Windchill Dew Point Humidity Pressure Visibility Wind Dir Wind Speed Gust Speed Precip Events Conditions
12:00 AM 12.2 °F -1.0 °F 8.6 °F 85% 30.25 in 9.0 mi SSE 10.4 mph - N/A Snow Light Snow
1:00 AM 10.4 °F -3.3 °F 6.8 °F 85% 30.25 in 9.0 mi SSE 10.4 mph - N/A Snow Light Snow
1:11 AM 12.2 °F -1.0 °F 8.6 °F 85% 30.25 in 9.0 mi SSE 10.4 mph - N/A Snow Light Snow
1:27 AM 10.4 °F -3.3 °F 6.8 °F 85% 30.25 in 9.0 mi SE 10.4 mph - N/A Snow Light Snow
2:00 AM 11 °F - 8 °F 81% 30.25 in 10 mi SSE 9.2 mph - - Snow Light Snow
2:00 AM 12.2 °F -1.0 °F 8.6 °F 85% 30.25 in 9.0 mi SSE 10.4 mph - N/A Snow Light Snow
2:22 AM 10.4 °F -2.4 °F 6.8 °F 85% 30.25 in 9.0 mi SSE 9.2 mph - N/A Snow Light Snow
3:00 AM 10.4 °F -1.5 °F 6.8 °F 85% 30.25 in 9.0 mi SSE 8.1 mph - N/A Snow Light Snow
3:07 AM 10.4 °F -0.4 °F 5.0 °F 79% 30.24 in 9.0 mi SSE 6.9 mph - N/A Snow Light Snow
4:00 AM 12.2 °F -0.2 °F 6.8 °F 79% 30.24 in 9.0 mi SSE 9.2 mph - N/A Snow Light Snow
4:43 AM 10.4 °F -2.4 °F 6.8 °F 85% 30.24 in 9.0 mi SSE 9.2 mph - N/A Snow Light Snow
5:00 AM 8 °F - 4 °F 75% 30.24 in 10 mi SSE 11.5 mph - - Snow Light Snow
5:00 AM 8.6 °F -6.3 °F 3.2 °F 79% 30.24 in 9.0 mi SSE 11.5 mph - N/A Snow Light Snow
5:19 AM 10.4 °F -3.3 °F 6.8 °F 85% 30.24 in 9.0 mi SSE 10.4 mph - N/A Snow Light Snow
5:34 AM 12.2 °F -0.2 °F 10.4 °F 92% 30.24 in 4.0 mi SSE 9.2 mph - N/A Snow Light Snow
5:36 AM 12.2 °F -0.2 °F 10.4 °F 92% 30.24 in 2.5 mi SSE 9.2 mph - N/A Snow Light Snow
5:38 AM 12.2 °F -0.2 °F 12.2 °F 100% 30.24 in 1.5 mi SSE 9.2 mph - N/A Snow Light Snow
5:42 AM 12.2 °F -0.2 °F 12.2 °F 100% 30.24 in 1.0 mi SSE 9.2 mph - N/A Snow Light Snow
6:00 AM 14.0 °F 2.0 °F 14.0 °F 100% 30.24 in 0.8 mi SSE 9.2 mph - N/A Snow Light Snow
6:02 AM 14.0 °F 2.0 °F 14.0 °F 100% 30.24 in 0.8 mi SSE 9.2 mph - N/A Snow Light Snow
6:03 AM 14.0 °F 2.0 °F 14.0 °F 100% 30.24 in 0.8 mi SSE 9.2 mph - N/A Snow Light Snow
6:13 AM 14.0 °F 2.0 °F 14.0 °F 100% 30.24 in 1.0 mi SSE 9.2 mph - N/A   Overcast
6:15 AM 15.8 °F 4.2 °F 14.0 °F 93% 30.24 in 1.0 mi SSE 9.2 mph - N/A Snow Light Snow
6:24 AM 15.8 °F 4.2 °F 14.0 °F 93% 30.24 in 2.0 mi SSE 9.2 mph - N/A Snow Light Snow
6:26 AM 15.8 °F 4.2 °F 14.0 °F 93% 30.24 in 3.0 mi SSE 9.2 mph - N/A Snow Light Snow
6:29 AM 15.8 °F 4.2 °F 14.0 °F 93% 30.24 in 6.0 mi SSE 9.2 mph - N/A Snow Light Snow
6:46 AM 15.8 °F 4.2 °F 14.0 °F 93% 30.24 in 9.0 mi SSE 9.2 mph - N/A Snow Light Snow
6:55 AM 15.8 °F 4.2 °F 14.0 °F 93% 30.24 in 5.0 mi SSE 9.2 mph - N/A Snow Light Snow
6:56 AM 15.8 °F 4.2 °F 14.0 °F 93% 30.24 in 4.0 mi SSE 9.2 mph - N/A Snow Light Snow
6:59 AM 15.8 °F 4.2 °F 14.0 °F 93% 30.24 in 2.0 mi SE 9.2 mph - N/A Snow Light Snow
7:00 AM 15.8 °F 4.2 °F 14.0 °F 93% 30.24 in 2.0 mi SE 9.2 mph - N/A   Overcast
7:02 AM 15.8 °F 5.1 °F 14.0 °F 93% 30.24 in 2.0 mi SE 8.1 mph - N/A Snow Light Snow
7:04 AM 14.0 °F 2.0 °F 14.0 °F 100% 30.24 in 1.8 mi SE 9.2 mph - N/A Snow Light Snow
7:07 AM 14.0 °F 2.0 °F 14.0 °F 100% 30.24 in 1.8 mi SE 9.2 mph - N/A Snow Light Snow
7:19 AM 14.0 °F 2.0 °F 14.0 °F 100% 30.23 in 2.2 mi SE 9.2 mph - N/A Snow Light Snow
7:25 AM 14.0 °F 2.0 °F 14.0 °F 100% 30.23 in 1.8 mi SSE 9.2 mph - N/A Snow Light Snow
7:34 AM 14.0 °F 2.0 °F 14.0 °F 100% 30.23 in 2.0 mi SSE 9.2 mph - N/A Snow Light Snow
7:36 AM 14.0 °F 2.0 °F 14.0 °F 100% 30.23 in 3.0 mi SSE 9.2 mph - N/A Snow Light Snow
7:39 AM 14.0 °F 2.0 °F 14.0 °F 100% 30.23 in 6.0 mi SSE 9.2 mph - N/A Snow Light Snow
7:53 AM 14.0 °F 1.2 °F 10.4 °F 86% 30.23 in 9.0 mi SSE 10.4 mph - N/A Snow Light Snow
8:00 AM 13 °F - 10 °F 84% 30.23 in 10 mi SE 10.4 mph - - Snow Light Snow
8:00 AM 12.2 °F -1.0 °F 10.4 °F 92% 30.23 in 9.0 mi SE 10.4 mph - N/A Snow Light Snow
8:59 AM 14.0 °F 2.0 °F 12.2 °F 93% 30.22 in 9.0 mi SE 9.2 mph - N/A Snow Light Snow
9:00 AM 14.0 °F 2.0 °F 12.2 °F 93% 30.21 in 9.0 mi SE 9.2 mph - N/A Snow Light Snow
9:46 AM 15.8 °F 4.2 °F 14.0 °F 93% 30.21 in 9.0 mi SE 9.2 mph - N/A Snow Light Snow
9:59 AM 15.8 °F 3.4 °F 14.0 °F 93% 30.21 in 9.0 mi SE 10.4 mph - N/A Snow Light Snow
10:00 AM 15.8 °F 4.2 °F 14.0 °F 93% 30.21 in 9.0 mi SE 9.2 mph - N/A Snow Light Snow
10:19 AM 17.6 °F 6.4 °F 14.0 °F 86% 30.21 in 9.0 mi SE 9.2 mph - N/A   Overcast
10:22 AM 17.6 °F 6.4 °F 14.0 °F 86% 30.21 in 9.0 mi SE 9.2 mph - N/A Snow Light Snow
10:43 AM 17.6 °F 7.3 °F 15.8 °F 93% 30.21 in 5.0 mi SSE 8.1 mph - N/A Snow Light Snow
10:48 AM 17.6 °F 7.3 °F 15.8 °F 93% 30.21 in 3.0 mi SSE 8.1 mph - N/A Snow Light Snow
11:00 AM 18 °F - 16 °F 86% 30.21 in 3 mi SSE 8.1 mph - - Snow Light Snow
11:00 AM 17.6 °F 7.3 °F 15.8 °F 93% 30.21 in 4.0 mi SSE 8.1 mph - N/A   Overcast
11:31 AM 17.6 °F 7.3 °F 15.8 °F 93% 30.20 in 8.0 mi SE 8.1 mph - N/A   Overcast
11:55 AM 17.6 °F 7.3 °F 15.8 °F 93% 30.20 in 8.0 mi SSE 8.1 mph - N/A Fog Overcast
12:00 PM 17.6 °F 7.3 °F 15.8 °F 93% 30.20 in 8.0 mi SSE 8.1 mph - N/A Fog Overcast
1:00 PM 17.6 °F 8.2 °F 15.8 °F 93% 30.19 in 8.0 mi South 6.9 mph - N/A Fog Overcast
2:00 PM 18 °F - 15 °F 84% 30.18 in 10 mi SSE 6.9 mph - - Snow Light Snow
2:00 PM 17.6 °F 7.3 °F 15.8 °F 93% 30.18 in 7.0 mi SSE 8.1 mph - N/A Fog Overcast
2:55 PM 17.6 °F 7.3 °F 14.0 °F 86% 30.18 in 7.0 mi South 8.1 mph - N/A Fog , Snow Light Snow
3:00 PM 17.6 °F 7.3 °F 14.0 °F 86% 30.18 in 6.0 mi South 8.1 mph - N/A Fog , Snow Light Snow
3:55 PM 17.6 °F 7.3 °F 15.8 °F 93% 30.18 in 7.0 mi SSE 8.1 mph - N/A Snow Light Snow
4:00 PM 17.6 °F 8.2 °F 15.8 °F 93% 30.18 in 7.0 mi SSE 6.9 mph - N/A Snow Light Snow
4:11 PM 17.6 °F 8.2 °F 15.8 °F 93% 30.18 in 7.0 mi South 6.9 mph - N/A Rain Light Freezing Rain
4:37 PM 17.6 °F 7.3 °F 15.8 °F 93% 30.17 in 9.0 mi South 8.1 mph - N/A Rain Light Freezing Rain
5:00 PM 17 °F - 16 °F 93% 30.17 in 7 mi South 10.4 mph - - Snow Light Snow
5:00 PM 17.6 °F 6.4 °F 15.8 °F 93% 30.17 in 9.0 mi South 9.2 mph - N/A Rain Light Freezing Rain
5:18 PM 15.8 °F 5.1 °F 14.0 °F 93% 30.17 in 10.0 mi SSE 8.1 mph - N/A   Overcast
6:00 PM 14.0 °F 0.5 °F 10.4 °F 86% 30.17 in 15.0 mi SSE 11.5 mph - N/A   Mostly Cloudy
7:00 PM 12.2 °F -1.8 °F 8.6 °F 85% 30.16 in 15.0 mi SE 11.5 mph - N/A   Mostly Cloudy
7:31 PM 10.4 °F -4.1 °F 6.8 °F 85% 30.16 in 9.0 mi SE 11.5 mph - N/A   Scattered Clouds
8:00 PM 10 °F - 7 °F 83% 30.16 in 10 mi SE 11.5 mph - -  
8:00 PM 10.4 °F -4.1 °F 6.8 °F 85% 30.16 in 9.0 mi SE 11.5 mph - N/A   Partly Cloudy
8:29 PM 8.6 °F -6.3 °F 6.8 °F 92% 30.16 in 9.0 mi SE 11.5 mph - N/A   Mostly Cloudy
8:48 PM 8.6 °F -7.0 °F 5.0 °F 85% 30.15 in 9.0 mi SE 12.7 mph - N/A   Overcast
9:00 PM 10.4 °F -5.4 °F 8.6 °F 92% 30.15 in 9.0 mi SE 13.8 mph - N/A   Overcast
9:16 PM 12.2 °F -2.5 °F 8.6 °F 85% 30.14 in 5.0 mi SSE 12.7 mph - N/A   Overcast
9:20 PM 12.2 °F -1.8 °F 10.4 °F 92% 30.14 in 5.0 mi SE 11.5 mph - N/A   Overcast
9:29 PM 12.2 °F -1.8 °F 10.4 °F 92% 30.14 in 6.0 mi SE 11.5 mph - N/A   Overcast
9:43 PM 14.0 °F 0.5 °F 10.4 °F 86% 30.14 in 5.0 mi SE 11.5 mph - N/A Snow Light Snow
9:45 PM 14.0 °F 0.5 °F 10.4 °F 86% 30.14 in 7.0 mi SE 11.5 mph - N/A Snow Light Snow
10:00 PM 14.0 °F 0.5 °F 10.4 °F 86% 30.14 in 7.0 mi SE 11.5 mph - N/A Snow Light Snow
10:07 PM 14.0 °F 0.5 °F 12.2 °F 93% 30.14 in 7.0 mi SSE 11.5 mph - N/A   Overcast
10:08 PM 14.0 °F 1.2 °F 12.2 °F 93% 30.13 in 6.0 mi SSE 10.4 mph - N/A Snow Light Snow
10:10 PM 14.0 °F 0.5 °F 12.2 °F 93% 30.13 in 5.0 mi SSE 11.5 mph - N/A Snow Light Snow
10:35 PM 14.0 °F -0.2 °F 12.2 °F 93% 30.12 in 6.0 mi SSE 12.7 mph - N/A Snow Light Snow
10:52 PM 14.0 °F 0.5 °F 12.2 °F 93% 30.12 in 9.0 mi SSE 11.5 mph - N/A Snow Light Snow
11:00 PM 15 °F - 13 °F 85% 30.12 in 7 mi SSE 12.7 mph - - Snow Light Snow
11:00 PM 15.8 °F 2.1 °F 12.2 °F 86% 30.12 in 8.0 mi SSE 12.7 mph - N/A Snow Light Snow
11:28 PM 14.0 °F 0.5 °F 12.2 °F 93% 30.12 in 9.0 mi SSE 11.5 mph - N/A Snow Light Snow